Jackson, TN

1:56 AM CST on November 12, 2019 (GMT -0600)
McKellar-Sipes Regional

Weather History for KMKL - July, 2019

Change the Weather History Date:

Saturday, July 20, 2019

  Actual Average Record
Temperature  
Mean Temperature 84 °F 80 °F  
Max Temperature 94 °F 91 °F 102 °F (1986)
Min Temperature 74 °F 69 °F 56 °F (2009)
Degree Days  
Heating Degree Days 0 0  
Month to date heating degree days 0 0  
Since 1 June heating degree days 1 2  
Since 1 July heating degree days 0 0  
Cooling Degree Days 19 15  
Month to date cooling degree days 328 293  
Year to date cooling degree days 909 847  
Since 1 June cooling degree days 649 632  
Growing Degree Days 33 (Base 50)    
Moisture  
Dew Point 75 °F    
Average Humidity 78    
Maximum Humidity 100    
Minimum Humidity 56    
Precipitation  
Precipitation 0.00 in 0.13 in 4.10 in (1975)
Month to date precipitation 9.26 2.94  
Year to date precipitation 42.08 31.32  
Sea Level Pressure  
Sea Level Pressure 29.99 in    
Wind  
Wind Speed 4 mph (SW)    
Max Wind Speed 14 mph    
Max Gust Speed 19 mph    
Visibility 10 miles    
Events      
T = Trace of Precipitation, MM = Missing Value Source: NWS Daily Summary

Daily Weather History Graph

Daily Weather History Graph

Search for Another Location

Airport or City:

Astronomy

Jul. 20, 2019 Rise Set
Actual Time 5:54 AM CDT 8:08 PM CDT
Civil Twilight 5:25 AM CDT 8:37 PM CDT
Nautical Twilight 4:50 AM CDT 9:13 PM CDT
Astronomical Twilight 4:11 AM CDT 9:51 PM CDT
Moon 10:42 PM CDT (7/20) 9:13 AM CDT (7/20)
Length of Visible Light 15h 11m
Length of Day
14h 14m
Waning Gibbous, 87% of the Moon is Illuminated
Jul 20
Waning Gibbous
Jul 24
Last Quarter
Jul 31
New
Aug 7
First Quarter
Aug 15
Full

Hourly Weather History & Observations

Time (CDT) Temp. Heat Index Dew Point Humidity Pressure Visibility Wind Dir Wind Speed Gust Speed Precip Events Conditions
12:53 AM 79.0 °F - 77.0 °F 94% 29.99 in 10.0 mi Calm Calm - N/A   Clear
1:53 AM 77.0 °F - 75.9 °F 96% 29.98 in 10.0 mi South 4.6 mph - N/A   Clear
2:53 AM 75.9 °F - 75.0 °F 97% 29.99 in 10.0 mi SSW 5.8 mph - N/A   Clear
3:53 AM 75.0 °F - 73.9 °F 96% 30.00 in 10.0 mi Calm Calm - N/A   Clear
4:53 AM 75.0 °F - 73.9 °F 96% 30.01 in 10.0 mi South 5.8 mph - N/A   Clear
5:53 AM 73.9 °F - 73.0 °F 97% 30.03 in 10.0 mi South 5.8 mph - N/A   Clear
6:53 AM 75.0 °F - 73.9 °F 96% 30.05 in 10.0 mi Calm Calm - N/A   Partly Cloudy
7:53 AM 78.1 °F - 75.0 °F 90% 30.05 in 10.0 mi South 4.6 mph - N/A   Clear
8:53 AM 82.0 °F 89.4 °F 75.9 °F 82% 30.05 in 10.0 mi SSW 6.9 mph - N/A   Clear
9:53 AM 84.9 °F 95.3 °F 77.0 °F 77% 30.03 in 10.0 mi North - - N/A   Clear
10:53 AM 87.1 °F 98.8 °F 77.0 °F 72% 30.01 in 10.0 mi West 6.9 mph - N/A   Clear
11:53 AM 90.0 °F 101.3 °F 75.9 °F 63% 30.00 in 10.0 mi WSW 5.8 mph - N/A   Scattered Clouds
12:53 PM 89.1 °F 98.0 °F 73.9 °F 61% 30.00 in 10.0 mi WSW 4.6 mph - N/A   Scattered Clouds
1:53 PM 91.9 °F 103.9 °F 75.9 °F 59% 29.98 in 10.0 mi Variable 5.8 mph - N/A   Partly Cloudy
2:53 PM 91.9 °F 101.3 °F 73.9 °F 55% 29.97 in 10.0 mi WNW 3.5 mph - N/A   Partly Cloudy
3:53 PM 93.0 °F 104.6 °F 75.0 °F 56% 29.96 in 10.0 mi Calm Calm - N/A   Clear
4:53 PM 91.9 °F 103.2 °F 75.0 °F 58% 29.94 in 10.0 mi West 5.8 mph - N/A   Partly Cloudy
5:53 PM 91.0 °F 101.6 °F 75.0 °F 59% 29.94 in 10.0 mi Calm Calm - N/A   Clear
6:53 PM 90.0 °F 101.3 °F 75.9 °F 63% 29.94 in 10.0 mi SSW 3.5 mph - N/A   Clear
7:53 PM 86.0 °F 100.8 °F 80.1 °F 82% 29.94 in 10.0 mi Calm Calm - N/A   Clear
8:53 PM 80.1 °F 85.1 °F 75.0 °F 85% 29.95 in 10.0 mi South 8.1 mph - N/A   Clear
9:53 PM 78.1 °F - 75.0 °F 90% 29.96 in 10.0 mi South 5.8 mph - N/A   Clear
10:53 PM 77.0 °F - 73.9 °F 90% 29.95 in 10.0 mi South 5.8 mph - N/A   Clear
11:53 PM 75.9 °F - 73.9 °F 94% 29.96 in 10.0 mi Calm Calm - N/A   Clear